CZ-6A DEB, 56271

Orbit data source: Space-Track

CZ-6A DEB, 56271 is space debris in SSO originally from a launch on Fri, 11 Nov 2022 UTC launched from the Taiyaun Space Center, China (TSC). Debris objects in space refer to the collection of defunct objects orbiting the Earth. Examples of debris include non-operational satellites, rocket bodies, and fragments generated from explosions, collisions, or faulty payload assembly.

Loading next visibility...
Identifier
56271, 2022-151ACP
Orbit
SSO
Country
Flag of CNCN / PRC
Related business
Manufacturer
SAST
Mission
Spacecraft
Bus & Motor
Unknown
Mass
Unknown
Launch date (UTC)
2022-11-11 (3 years ago)
Launch vehicle
Unknown
Launch site
Taiyaun Space Center, China (TSC)
Object type
Payload
Rocket body
Debris
Shape & HBR
Unknown shape, 0.1 m
Radar Cross Section
Small (<0.1 m²)

Expand to show TLE details & history
Last TLE update: 21 hours ago

TLE from 21 hours ago
0 CZ-6A DEB
1 56271U 22151ACP 25350.07294001  .00011823  00000-0  19136-2 0  9997
2 56271  98.5465  25.5560 0056064 133.3899 227.1995 14.70390337145103
Epoch: 2025-12-16T01:45Z
TLE epoch observation values (Epoch: 2025-12-16T01:45:02.016Z)
Latitude
0.00001°
Longitude
-85.6648°
Altitude
689.744 km
Speed
7.497 km/s
True Right ascension
01h 42m 13s
True Declination
0° 00' 00"
Sunlit
Object was in full shadow at epoch
Visualization orbit readout
Latitude
Unknown
Longitude
Unknown
Altitude
Unknown
Speed
Unknown
Apparent Right ascension
Unknown
Apparent Declination
Unknown
Sunlit
N/A
Visualization observer readout
Local Sidereal Time
21:35:43
Azimuth
Unknown
Elevation
Unknown
Doppler factor
Unknown
Orbital elements
Apogee altitude
696.347 km
Perigee altitude
617.465 km
Semi-major axis
7,035.043 km
Eccentricity
0.00561
Inclination
98.5465°
RAAN
25.556°
Arg. of periapsis
133.3899°
True anomaly
226.73036°
Mean anomaly
227.1995°
Eccentric anomaly
226.96471°
Mean motion
3.67827 °/min
Orbital period
97.87 mins
BSTAR
0.0019136
Loading maneuver chart data...
Computing Atmospheric mass density...
Loading historical data...
Loading historical data...
Loading historical data...
Loading historical data...
Loading historical data...
Loading historical data...
Loading historical data...

Documentation

Showing up to 5 results
|